Location: Doschendorf
(50.0069°N, 11.0602°E)
Time: 13:59:01
(UTC+00:00)

SMAP - Pass Details

Date: 17 November 2019
Orbit: 682 x 683 km, 98.1° (Epoch: 06 December)

Event Time Altitude Azimuth Distance (km) Brightness Sun altitude
Rises 16:11:17 0° 154° (SSE) 3,034 6.4 -6.9°
Reaches altitude 10° 16:13:31 10° 151° (SSE) 2,123 5.5 -7.2°
Maximum altitude 16:18:06 63° 72° (ENE) 768 3.1 -7.9°
Drops below altitude 10° 16:22:43 10° 352° (N) 2,139 5.5 -8.6°
Sets 16:24:59 0° 349° (N) 3,059 6.3 -8.9°
